TITAN 3C TRANSTAGE DEB, 43284

Orbit data source: Space-Track

TITAN 3C TRANSTAGE DEB, 43284 is space debris in GEO originally from a launch on Sun, 09 Feb 1969 UTC launched from the Air Force Eastern Test Range (AFETR). Debris objects in space refer to the collection of defunct objects orbiting the Earth. Examples of debris include non-operational satellites, rocket bodies, and fragments generated from explosions, collisions, or faulty payload assembly.

Not visible in the next 10 days
Identifier
43284, 1969-013E
Orbit
GEO
Country
Flag of USUS
Related business
Manufacturer
Martin Marietta
Mission
Spacecraft
Bus & Motor
Unknown
Mass
Unknown
Launch date (UTC)
1969-02-09 (57 years ago)
Launch vehicle
Unknown
Launch site
Air Force Eastern Test Range (AFETR)
Object type
Payload
Rocket body
Debris
Shape & HBR
Unknown shape, 1.1 m
Radar Cross Section
RCS unknown

Expand to show TLE details & history
Last TLE update: 1 day ago

TLE from 1 day ago
0 TITAN 3C TRANSTAGE DEB
1 43284U 69013E   26034.34057299 -.00000132  00000-0  00000-0 0  9991
2 43284   0.9870  75.4131 0139216  44.2001 241.7476  0.97231333 27990
Epoch: 2026-02-03T08:10Z
TLE epoch observation values (Epoch: 2026-02-03T08:10:25.506Z)
Latitude
-0.98099°
Longitude
103.87294°
Altitude
36,952.983 km
Speed
3.023 km/s
True Right ascension
00h 00m 00s
True Declination
0° 58' 48"
Sunlit
Object was in daylight at epoch
Visualization orbit readout
Latitude
Unknown
Longitude
Unknown
Altitude
Unknown
Speed
Unknown
Apparent Right ascension
Unknown
Apparent Declination
Unknown
Sunlit
N/A
Visualization observer readout
Local Sidereal Time
14:34:25
Azimuth
Unknown
Elevation
Unknown
Doppler factor
Unknown
Orbital elements
Apogee altitude
37,261.318 km
Perigee altitude
36,062.939 km
Semi-major axis
43,040.265 km
Eccentricity
0.01392
Inclination
0.987°
RAAN
75.4131°
Arg. of periapsis
44.2001°
True anomaly
240.35397°
Mean anomaly
241.7476°
Eccentric anomaly
241.04963°
Mean motion
0.24307 °/min
Orbital period
1,481.06 mins
BSTAR
0
Loading maneuver chart data...
Computing Atmospheric mass density...

Documentation

Showing up to 5 results
|